| time (UTC) | temp C | wind direction | speed KPH | gust KPH | rain 1hr cm | rain 24hr cm | rain mn cm | humidity % | barometer mb |
| 20260505153038 | 31 | 242 | 0.0 | 3.2 | 0.00 | 0.00 | 0.00 | 49 | 1029.6 |
| 20260505152534 | 30 | 238 | 0.0 | 1.6 | 0.00 | 0.00 | 0.00 | 51 | 1029.6 |
| 20260505152030 | 31 | 241 | 0.0 | 1.6 | 0.00 | 0.00 | 0.00 | 51 | 1029.6 |
| 20260505151525 | 30 | 238 | 0.0 | 1.6 | 0.00 | 0.00 | 0.00 | 51 | 1029.5 |
| 20260505151023 | 30 | 241 | 0.0 | 3.2 | 0.00 | 0.00 | 0.00 | 55 | 1029.7 |
| 20260505150519 | 30 | 235 | 0.0 | 1.6 | 0.00 | 0.00 | 0.00 | 55 | 1029.7 |
| 20260505140438 | 28 | 238 | 0.0 | 0.0 | 0.00 | 0.00 | 0.00 | 61 | 1030.4 |
| 20260505124852 | 24 | 229 | 3.2 | 3.2 | 0.00 | 0.00 | 0.00 | 72 | 1030.9 |
| 20260505124349 | 25 | 236 | 3.2 | 4.8 | 0.00 | 0.00 | 0.00 | 71 | 1031.0 |
| 20260505123844 | 24 | 241 | 1.6 | 4.8 | 0.00 | 0.00 | 0.00 | 73 | 1030.8 |
| 20260505123342 | 24 | 241 | 0.0 | 1.6 | 0.00 | 0.00 | 0.00 | 71 | 1030.9 |
| 20260505122838 | 23 | 235 | 0.0 | 3.2 | 0.00 | 0.00 | 0.00 | 74 | 1030.6 |
| 20260505122335 | 24 | 252 | 1.6 | 3.2 | 0.00 | 0.00 | 0.00 | 72 | 1030.7 |
| 20260505121832 | 24 | 223 | 1.6 | 4.8 | 0.00 | 0.00 | 0.00 | 72 | 1030.7 |
| 20260505121329 | 23 | 239 | 0.0 | 1.6 | 0.00 | 0.00 | 0.00 | 74 | 1030.7 |
| 20260505120825 | 23 | 241 | 0.0 | 1.6 | 0.00 | 0.00 | 0.00 | 74 | 1030.6 |
| 20260505120321 | 23 | 234 | 1.6 | 3.2 | 0.00 | 0.00 | 0.00 | 75 | 1030.5 |
| 20260505115820 | 23 | 237 | 1.6 | 3.2 | 0.00 | 0.00 | 0.00 | 75 | 1030.6 |
| 20260505115317 | 23 | 244 | 3.2 | 3.2 | 0.00 | 0.00 | 0.00 | 73 | 1030.7 |
| 20260505114815 | 23 | 240 | 0.0 | 1.6 | 0.00 | 0.00 | 0.00 | 74 | 1030.4 |
| 20260505114311 | 23 | 229 | 1.6 | 1.6 | 0.00 | 0.00 | 0.00 | 74 | 1030.5 |
| 20260505113808 | 23 | 240 | 0.0 | 1.6 | 0.00 | 0.00 | 0.00 | 76 | 1030.1 |
| 20260505113304 | 22 | 238 | 0.0 | 1.6 | 0.00 | 0.00 | 0.00 | 77 | 1030.2 |
| 20260505112800 | 22 | 244 | 0.0 | 1.6 | 0.00 | 0.00 | 0.00 | 76 | 1030.4 |
| 20260505112258 | 23 | 234 | 1.6 | 1.6 | 0.00 | 0.00 | 0.00 | 75 | 1030.1 |
| 20260505111753 | 23 | 236 | 0.0 | 1.6 | 0.00 | 0.00 | 0.00 | 75 | 1030.0 |
| 20260505111249 | 22 | 239 | 0.0 | 0.0 | 0.00 | 0.00 | 0.00 | 78 | 1029.9 |
| 20260505110745 | 22 | 244 | 1.6 | 1.6 | 0.00 | 0.00 | 0.00 | 77 | 1029.9 |
| 20260505110243 | 22 | 235 | 0.0 | 0.0 | 0.00 | 0.00 | 0.00 | 79 | 1029.8 |
| 20260505102218 | 18 | 238 | 0.0 | 1.6 | 0.00 | 0.00 | 0.00 | 92 | 1029.5 |
| 20260505101717 | 18 | 235 | 0.0 | 0.0 | 0.00 | 0.00 | 0.00 | 93 | 1029.5 |
| 20260505101212 | 18 | 229 | 0.0 | 1.6 | 0.00 | 0.00 | 0.00 | 93 | 1029.6 |
| 20260505100709 | 18 | 169 | 0.0 | 0.0 | 0.00 | 0.00 | 0.00 | 93 | 1029.4 |
| 20260505100206 | 17 | 160 | 1.6 | 3.2 | 0.00 | 0.00 | 0.00 | 94 | 1029.2 |
| 20260505095701 | 17 | 159 | 0.0 | 1.6 | 0.00 | 0.00 | 0.00 | 94 | 1029.3 |
| 20260505095200 | 17 | 158 | 0.0 | 1.6 | 0.00 | 0.00 | 0.00 | 94 | 1029.2 |
| 20260505094655 | 17 | 157 | 0.0 | 1.6 | 0.00 | 0.00 | 0.00 | 94 | 1029.2 |
| 20260505094151 | 17 | 157 | 1.6 | 1.6 | 0.00 | 0.00 | 0.00 | 94 | 1029.2 |
| 20260505093648 | 17 | 157 | 0.0 | 1.6 | 0.00 | 0.00 | 0.00 | 94 | 1029.0 |
| 20260505093145 | 17 | 157 | 1.6 | 1.6 | 0.00 | 0.00 | 0.00 | 94 | 1029.1 |
| 20260505092642 | 17 | 157 | 0.0 | 4.8 | 0.00 | 0.00 | 0.00 | 94 | 1028.8 |
| 20260505092141 | 17 | 157 | 0.0 | 0.0 | 0.00 | 0.00 | 0.00 | 94 | 1028.8 |
| 20260505091638 | 17 | 157 | 0.0 | 0.0 | 0.00 | 0.00 | 0.00 | 94 | 1028.8 |
| 20260505091136 | 17 | 157 | 0.0 | 0.0 | 0.00 | 0.00 | 0.00 | 94 | 1028.8 |
| 20260505090633 | 17 | 157 | 0.0 | 0.0 | 0.00 | 0.00 | 0.00 | 94 | 1028.7 |
| 20260505090131 | 17 | 157 | 0.0 | 0.0 | 0.00 | 0.00 | 0.00 | 94 | 1028.5 |
| 20260505085628 | 17 | 157 | 0.0 | 0.0 | 0.00 | 0.00 | 0.00 | 93 | 1028.7 |
| 20260505085126 | 17 | 157 | 0.0 | 0.0 | 0.00 | 0.00 | 0.00 | 93 | 1028.5 |
| 20260505084623 | 17 | 157 | 0.0 | 0.0 | 0.00 | 0.00 | 0.00 | 93 | 1028.6 |
| 20260505084122 | 17 | 157 | 0.0 | 0.0 | 0.00 | 0.00 | 0.00 | 93 | 1028.6 |
| 20260505083619 | 18 | 157 | 0.0 | 1.6 | 0.00 | 0.00 | 0.00 | 93 | 1028.3 |
| 20260505083115 | 18 | 157 | 0.0 | 1.6 | 0.00 | 0.00 | 0.00 | 93 | 1028.2 |
| 20260505082611 | 17 | 157 | 1.6 | 1.6 | 0.00 | 0.00 | 0.00 | 93 | 1028.3 |
| 20260505082109 | 17 | 157 | 0.0 | 0.0 | 0.00 | 0.00 | 0.00 | 93 | 1028.2 |
| 20260505081604 | 18 | 157 | 0.0 | 0.0 | 0.00 | 0.00 | 0.00 | 93 | 1028.1 |
| 20260505081102 | 18 | 157 | 0.0 | 3.2 | 0.00 | 0.00 | 0.00 | 93 | 1028.1 |
| 20260505080558 | 18 | 157 | 0.0 | 0.0 | 0.00 | 0.00 | 0.00 | 93 | 1028.0 |
| 20260505080055 | 17 | 157 | 0.0 | 0.0 | 0.00 | 0.00 | 0.00 | 93 | 1028.0 |
| 20260505075550 | 18 | 157 | 0.0 | 0.0 | 0.00 | 0.00 | 0.00 | 93 | 1028.1 |
| 20260505075048 | 18 | 157 | 0.0 | 0.0 | 0.00 | 0.00 | 0.00 | 92 | 1028.1 |
| 20260505074544 | 18 | 157 | 0.0 | 0.0 | 0.00 | 0.00 | 0.00 | 92 | 1028.0 |
| 20260505074042 | 18 | 157 | 0.0 | 0.0 | 0.00 | 0.00 | 0.00 | 92 | 1028.0 |
| 20260505073539 | 18 | 157 | 0.0 | 0.0 | 0.00 | 0.00 | 0.00 | 92 | 1028.0 |
| 20260505073038 | 18 | 157 | 1.6 | 1.6 | 0.00 | 0.00 | 0.00 | 92 | 1028.1 |
| 20260505072533 | 18 | 157 | 1.6 | 3.2 | 0.00 | 0.00 | 0.00 | 92 | 1028.1 |
| 20260505072029 | 18 | 157 | 3.2 | 4.8 | 0.00 | 0.00 | 0.00 | 92 | 1028.3 |
| 20260505071524 | 18 | 157 | 0.0 | 3.2 | 0.00 | 0.00 | 0.00 | 92 | 1028.3 |
| 20260505071023 | 18 | 157 | 0.0 | 0.0 | 0.00 | 0.00 | 0.00 | 92 | 1028.2 |
| 20260505070520 | 18 | 157 | 0.0 | 1.6 | 0.00 | 0.00 | 0.00 | 92 | 1028.1 |
| 20260505070016 | 18 | 157 | 0.0 | 1.6 | 0.00 | 0.00 | 0.00 | 92 | 1028.2 |
| 20260505065512 | 18 | 157 | 0.0 | 1.6 | 0.00 | 0.00 | 0.00 | 92 | 1028.2 |
| 20260505065008 | 18 | 157 | 0.0 | 0.0 | 0.00 | 0.00 | 0.00 | 92 | 1028.3 |
| 20260505064505 | 18 | 157 | 0.0 | 0.0 | 0.00 | 0.00 | 0.00 | 92 | 1028.4 |
| 20260505064004 | 18 | 157 | 0.0 | 0.0 | 0.00 | 0.00 | 0.00 | 92 | 1028.3 |
| 20260505063501 | 18 | 157 | 0.0 | 1.6 | 0.00 | 0.00 | 0.00 | 92 | 1028.5 |
| 20260505062957 | 18 | 157 | 0.0 | 0.0 | 0.00 | 0.00 | 0.00 | 92 | 1028.4 |
| 20260505062454 | 18 | 158 | 0.0 | 0.0 | 0.00 | 0.00 | 0.00 | 92 | 1028.6 |
| 20260505061951 | 18 | 158 | 1.6 | 4.8 | 0.00 | 0.00 | 0.00 | 92 | 1028.5 |
| 20260505061449 | 18 | 158 | 0.0 | 1.6 | 0.00 | 0.00 | 0.00 | 92 | 1028.4 |
| 20260505060946 | 18 | 158 | 0.0 | 0.0 | 0.00 | 0.00 | 0.00 | 92 | 1028.4 |
| 20260505060443 | 18 | 158 | 0.0 | 3.2 | 0.00 | 0.00 | 0.00 | 92 | 1028.5 |
| 20260505055939 | 18 | 158 | 0.0 | 0.0 | 0.00 | 0.00 | 0.00 | 92 | 1028.6 |
| 20260505055435 | 18 | 158 | 0.0 | 0.0 | 0.00 | 0.00 | 0.00 | 92 | 1028.6 |
| 20260505054932 | 18 | 158 | 0.0 | 0.0 | 0.00 | 0.00 | 0.00 | 92 | 1028.5 |
| 20260505054430 | 18 | 158 | 0.0 | 0.0 | 0.00 | 0.00 | 0.00 | 92 | 1028.4 |
| 20260505053928 | 18 | 158 | 0.0 | 0.0 | 0.00 | 0.00 | 0.00 | 92 | 1028.4 |
| 20260505053425 | 18 | 158 | 0.0 | 0.0 | 0.00 | 0.00 | 0.00 | 92 | 1028.5 |
| 20260505052921 | 18 | 158 | 0.0 | 0.0 | 0.00 | 0.00 | 0.00 | 92 | 1028.5 |
| 20260505052418 | 18 | 158 | 0.0 | 0.0 | 0.00 | 0.00 | 0.00 | 92 | 1028.5 |
| 20260505051915 | 18 | 158 | 0.0 | 0.0 | 0.00 | 0.00 | 0.00 | 91 | 1028.7 |
| 20260505051412 | 18 | 158 | 0.0 | 3.2 | 0.00 | 0.00 | 0.00 | 91 | 1028.5 |
| 20260505050910 | 18 | 158 | 0.0 | 0.0 | 0.00 | 0.00 | 0.00 | 91 | 1028.6 |
| 20260505050408 | 18 | 158 | 0.0 | 1.6 | 0.00 | 0.00 | 0.00 | 91 | 1028.6 |
| 20260505041330 | 19 | 159 | 0.0 | 0.0 | 0.00 | 0.00 | 0.00 | 91 | 1029.1 |
| 20260505040827 | 19 | 159 | 1.6 | 3.2 | 0.00 | 0.00 | 0.00 | 91 | 1029.0 |
| 20260505040325 | 19 | 159 | 1.6 | 4.8 | 0.00 | 0.00 | 0.00 | 91 | 1029.1 |
| 20260505035821 | 18 | 159 | 0.0 | 1.6 | 0.00 | 0.00 | 0.00 | 91 | 1029.3 |
| 20260505035316 | 19 | 159 | 0.0 | 0.0 | 0.00 | 0.00 | 0.00 | 91 | 1029.1 |
| 20260505034814 | 19 | 159 | 1.6 | 4.8 | 0.00 | 0.00 | 0.00 | 91 | 1029.2 |
| 20260505034311 | 18 | 160 | 0.0 | 1.6 | 0.00 | 0.00 | 0.00 | 91 | 1029.2 |
| 20260505033808 | 18 | 160 | 1.6 | 1.6 | 0.00 | 0.00 | 0.00 | 92 | 1029.2 |
| 20260505033305 | 18 | 160 | 0.0 | 1.6 | 0.00 | 0.00 | 0.00 | 92 | 1029.1 |
| 20260505032803 | 18 | 160 | 0.0 | 0.0 | 0.00 | 0.00 | 0.00 | 92 | 1029.2 |
| 20260505032259 | 18 | 160 | 0.0 | 0.0 | 0.00 | 0.00 | 0.00 | 92 | 1029.1 |
| 20260505031756 | 18 | 160 | 0.0 | 0.0 | 0.00 | 0.00 | 0.00 | 92 | 1029.2 |
| 20260505031252 | 18 | 160 | 0.0 | 0.0 | 0.00 | 0.00 | 0.00 | 92 | 1029.0 |
| 20260505030749 | 18 | 160 | 0.0 | 0.0 | 0.00 | 0.00 | 0.00 | 92 | 1029.2 |
| 20260505030246 | 18 | 160 | 0.0 | 0.0 | 0.00 | 0.00 | 0.00 | 92 | 1029.2 |
| 20260505025741 | 18 | 160 | 0.0 | 0.0 | 0.00 | 0.00 | 0.00 | 92 | 1029.1 |
| 20260505025240 | 18 | 160 | 0.0 | 0.0 | 0.00 | 0.00 | 0.00 | 92 | 1029.1 |
| 20260505024738 | 18 | 160 | 0.0 | 0.0 | 0.00 | 0.00 | 0.00 | 92 | 1029.1 |
| 20260505024234 | 18 | 160 | 0.0 | 0.0 | 0.00 | 0.00 | 0.00 | 92 | 1029.1 |
| 20260505023732 | 18 | 160 | 0.0 | 0.0 | 0.00 | 0.00 | 0.00 | 92 | 1029.1 |
| 20260505023229 | 18 | 160 | 0.0 | 0.0 | 0.00 | 0.00 | 0.00 | 91 | 1029.2 |
| 20260505022726 | 18 | 160 | 0.0 | 0.0 | 0.00 | 0.00 | 0.00 | 91 | 1029.2 |
| 20260505022223 | 18 | 160 | 0.0 | 0.0 | 0.00 | 0.00 | 0.00 | 91 | 1029.0 |
| 20260505021720 | 18 | 160 | 0.0 | 0.0 | 0.00 | 0.00 | 0.00 | 91 | 1029.1 |
| 20260505021217 | 18 | 160 | 0.0 | 0.0 | 0.00 | 0.00 | 0.00 | 90 | 1029.1 |
| 20260505020712 | 18 | 160 | 0.0 | 0.0 | 0.00 | 0.00 | 0.00 | 91 | 1029.2 |
| 20260505020208 | 18 | 160 | 0.0 | 0.0 | 0.00 | 0.00 | 0.00 | 91 | 1029.1 |
| 20260505015706 | 18 | 160 | 0.0 | 0.0 | 0.00 | 0.00 | 0.00 | 91 | 1029.2 |
| 20260505015202 | 18 | 160 | 0.0 | 1.6 | 0.00 | 0.00 | 0.00 | 91 | 1029.2 |
| 20260505014659 | 18 | 160 | 0.0 | 0.0 | 0.00 | 0.00 | 0.00 | 91 | 1029.1 |
| 20260505014156 | 18 | 160 | 0.0 | 0.0 | 0.00 | 0.00 | 0.00 | 91 | 1029.0 |
| 20260505013654 | 18 | 160 | 0.0 | 0.0 | 0.00 | 0.00 | 0.00 | 91 | 1029.3 |
| 20260505013150 | 18 | 160 | 0.0 | 0.0 | 0.00 | 0.00 | 0.00 | 91 | 1029.0 |
| 20260505012649 | 18 | 160 | 0.0 | 0.0 | 0.00 | 0.00 | 0.00 | 91 | 1029.3 |
| 20260505012146 | 18 | 160 | 0.0 | 0.0 | 0.00 | 0.00 | 0.00 | 91 | 1029.1 |
| 20260505011641 | 18 | 160 | 0.0 | 0.0 | 0.00 | 0.00 | 0.00 | 91 | 1029.1 |
| 20260505011139 | 18 | 161 | 0.0 | 1.6 | 0.00 | 0.00 | 0.00 | 91 | 1029.0 |
| 20260505010634 | 18 | 167 | 0.0 | 0.0 | 0.00 | 0.00 | 0.00 | 91 | 1029.2 |
| 20260505010131 | 18 | 176 | 0.0 | 0.0 | 0.00 | 0.00 | 0.00 | 91 | 1029.2 |
| 20260505005627 | 18 | 185 | 0.0 | 0.0 | 0.00 | 0.00 | 0.00 | 91 | 1029.3 |
| 20260505005124 | 18 | 195 | 0.0 | 0.0 | 0.00 | 0.00 | 0.00 | 91 | 1029.4 |
| 20260505004621 | 18 | 202 | 0.0 | 0.0 | 0.00 | 0.00 | 0.00 | 91 | 1029.2 |
| 20260505004118 | 18 | 210 | 0.0 | 0.0 | 0.00 | 0.00 | 0.00 | 90 | 1029.3 |
| 20260505003615 | 18 | 214 | 0.0 | 0.0 | 0.00 | 0.00 | 0.00 | 90 | 1029.2 |
| 20260505003112 | 18 | 219 | 0.0 | 0.0 | 0.00 | 0.00 | 0.00 | 90 | 1029.2 |
| 20260505002607 | 18 | 221 | 0.0 | 0.0 | 0.00 | 0.00 | 0.00 | 90 | 1029.3 |
| 20260505002101 | 18 | 223 | 0.0 | 0.0 | 0.00 | 0.00 | 0.00 | 90 | 1029.0 |
| 20260505001558 | 18 | 226 | 0.0 | 0.0 | 0.00 | 0.00 | 0.00 | 90 | 1028.8 |
| 20260505001055 | 18 | 227 | 0.0 | 0.0 | 0.00 | 0.00 | 0.00 | 90 | 1029.0 |
| 20260505000552 | 18 | 227 | 0.0 | 0.0 | 0.00 | 0.00 | 0.00 | 90 | 1029.0 |
| 20260505000050 | 18 | 228 | 0.0 | 0.0 | 0.00 | 0.00 | 0.00 | 90 | 1029.1 |
| 20260504235546 | 18 | 229 | 0.0 | 0.0 | 0.00 | 0.00 | 0.00 | 89 | 1028.8 |
| 20260504235043 | 19 | 229 | 0.0 | 0.0 | 0.00 | 0.00 | 0.00 | 89 | 1029.0 |
| 20260504234540 | 19 | 229 | 0.0 | 0.0 | 0.00 | 0.00 | 0.00 | 89 | 1028.7 |
| 20260504234037 | 19 | 229 | 0.0 | 0.0 | 0.00 | 0.00 | 0.00 | 89 | 1028.7 |
| 20260504233532 | 19 | 230 | 0.0 | 0.0 | 0.00 | 0.00 | 0.00 | 89 | 1028.7 |
| 20260504233029 | 19 | 230 | 1.6 | 1.6 | 0.00 | 0.00 | 0.00 | 89 | 1028.7 |
| 20260504232526 | 19 | 234 | 0.0 | 0.0 | 0.00 | 0.00 | 0.00 | 89 | 1028.8 |
| 20260504232024 | 19 | 234 | 0.0 | 0.0 | 0.00 | 0.00 | 0.00 | 89 | 1028.7 |
| 20260504231521 | 19 | 232 | 1.6 | 1.6 | 0.00 | 0.00 | 0.00 | 89 | 1028.7 |
| 20260504231017 | 19 | 234 | 0.0 | 0.0 | 0.00 | 0.00 | 0.00 | 89 | 1028.6 |
| 20260504230513 | 19 | 234 | 0.0 | 0.0 | 0.00 | 0.00 | 0.00 | 89 | 1028.6 |
| 20260504230012 | 19 | 230 | 0.0 | 3.2 | 0.00 | 0.00 | 0.00 | 89 | 1028.2 |
| 20260504225509 | 19 | 232 | 0.0 | 1.6 | 0.00 | 0.00 | 0.00 | 88 | 1028.1 |
| 20260504225006 | 20 | 231 | 0.0 | 1.6 | 0.00 | 0.00 | 0.00 | 88 | 1028.2 |
| 20260504224503 | 20 | 236 | 0.0 | 0.0 | 0.00 | 0.00 | 0.00 | 88 | 1028.2 |
| 20260504223959 | 20 | 236 | 0.0 | 0.0 | 0.00 | 0.00 | 0.00 | 88 | 1028.0 |
| 20260504223456 | 20 | 231 | 0.0 | 0.0 | 0.00 | 0.00 | 0.00 | 88 | 1028.1 |
| 20260504222951 | 20 | 232 | 0.0 | 0.0 | 0.00 | 0.00 | 0.00 | 88 | 1028.0 |
| 20260504222449 | 20 | 235 | 0.0 | 1.6 | 0.00 | 0.00 | 0.00 | 88 | 1028.2 |
| 20260504221946 | 20 | 237 | 0.0 | 1.6 | 0.00 | 0.00 | 0.00 | 88 | 1027.9 |
| 20260504221444 | 20 | 238 | 0.0 | 0.0 | 0.00 | 0.00 | 0.00 | 88 | 1027.9 |
| 20260504220941 | 20 | 238 | 0.0 | 0.0 | 0.00 | 0.00 | 0.00 | 88 | 1027.7 |
| 20260504220437 | 20 | 238 | 0.0 | 0.0 | 0.00 | 0.00 | 0.00 | 88 | 1027.6 |
| 20260504215934 | 20 | 239 | 0.0 | 0.0 | 0.00 | 0.00 | 0.00 | 88 | 1027.3 |
| 20260504215431 | 20 | 234 | 0.0 | 0.0 | 0.00 | 0.00 | 0.00 | 88 | 1027.6 |
| 20260504214927 | 20 | 233 | 0.0 | 0.0 | 0.00 | 0.00 | 0.00 | 87 | 1027.4 |
| 20260504214424 | 20 | 233 | 0.0 | 0.0 | 0.00 | 0.00 | 0.00 | 87 | 1027.3 |
| 20260504213920 | 20 | 238 | 0.0 | 1.6 | 0.00 | 0.00 | 0.00 | 87 | 1027.4 |
| 20260504213416 | 20 | 233 | 0.0 | 0.0 | 0.00 | 0.00 | 0.00 | 87 | 1027.2 |
| 20260504212914 | 20 | 239 | 0.0 | 1.6 | 0.00 | 0.00 | 0.00 | 87 | 1027.2 |
| 20260504212409 | 20 | 235 | 0.0 | 3.2 | 0.00 | 0.00 | 0.00 | 87 | 1027.2 |
| 20260504211908 | 20 | 239 | 0.0 | 0.0 | 0.00 | 0.00 | 0.00 | 86 | 1027.2 |
| 20260504211404 | 20 | 239 | 0.0 | 1.6 | 0.00 | 0.00 | 0.00 | 86 | 1027.1 |
| 20260504210901 | 20 | 240 | 0.0 | 4.8 | 0.00 | 0.00 | 0.00 | 86 | 1027.3 |
| 20260504210358 | 20 | 243 | 1.6 | 1.6 | 0.00 | 0.00 | 0.00 | 86 | 1027.0 |
| 20260504205855 | 20 | 241 | 0.0 | 1.6 | 0.00 | 0.00 | 0.00 | 85 | 1027.1 |
| 20260504205353 | 20 | 247 | 1.6 | 1.6 | 0.00 | 0.00 | 0.00 | 85 | 1026.9 |
| 20260504204851 | 21 | 238 | 0.0 | 1.6 | 0.00 | 0.00 | 0.00 | 84 | 1026.8 |
| 20260504204349 | 21 | 236 | 0.0 | 1.6 | 0.00 | 0.00 | 0.00 | 84 | 1026.7 |
| 20260504203848 | 21 | 243 | 0.0 | 1.6 | 0.00 | 0.00 | 0.00 | 83 | 1026.6 |
| 20260504203344 | 21 | 238 | 0.0 | 8.0 | 0.00 | 0.00 | 0.00 | 83 | 1026.8 |
| 20260504202840 | 21 | 236 | 0.0 | 3.2 | 0.00 | 0.00 | 0.00 | 82 | 1026.7 |
| 20260504202338 | 22 | 242 | 0.0 | 3.2 | 0.00 | 0.00 | 0.00 | 81 | 1026.5 |
| 20260504201834 | 22 | 241 | 1.6 | 3.2 | 0.00 | 0.00 | 0.00 | 81 | 1026.7 |
| 20260504201332 | 22 | 239 | 3.2 | 4.8 | 0.00 | 0.00 | 0.00 | 80 | 1026.7 |
| 20260504200829 | 22 | 236 | 3.2 | 8.0 | 0.00 | 0.00 | 0.00 | 79 | 1026.6 |
| 20260504200325 | 23 | 242 | 1.6 | 3.2 | 0.00 | 0.00 | 0.00 | 78 | 1026.5 |
| 20260504195822 | 23 | 245 | 1.6 | 8.0 | 0.00 | 0.00 | 0.00 | 77 | 1026.4 |
| 20260504195317 | 23 | 237 | 0.0 | 1.6 | 0.00 | 0.00 | 0.00 | 75 | 1026.5 |
| 20260504194814 | 25 | 224 | 3.2 | 4.8 | 0.00 | 0.00 | 0.00 | 73 | 1026.3 |
| 20260504194310 | 26 | 247 | 1.6 | 11.3 | 0.00 | 0.00 | 0.00 | 67 | 1026.1 |
| 20260504193807 | 26 | 244 | 1.6 | 1.6 | 0.00 | 0.00 | 0.00 | 63 | 1026.1 |
| 20260504193304 | 26 | 237 | 0.0 | 0.0 | 0.00 | 0.00 | 0.00 | 63 | 1026.0 |
| 20260504192803 | 26 | 242 | 0.0 | 1.6 | 0.00 | 0.00 | 0.00 | 62 | 1025.9 |
| 20260504192300 | 26 | 238 | 0.0 | 1.6 | 0.00 | 0.00 | 0.00 | 62 | 1025.9 |
| 20260504191759 | 26 | 238 | 0.0 | 1.6 | 0.00 | 0.00 | 0.00 | 61 | 1026.0 |
| 20260504191256 | 26 | 239 | 1.6 | 1.6 | 0.00 | 0.00 | 0.00 | 61 | 1026.1 |
| 20260504190751 | 27 | 242 | 0.0 | 1.6 | 0.00 | 0.00 | 0.00 | 60 | 1026.0 |
| 20260504190248 | 27 | 241 | 0.0 | 0.0 | 0.00 | 0.00 | 0.00 | 61 | 1025.9 |
| 20260504185744 | 27 | 239 | 0.0 | 4.8 | 0.00 | 0.00 | 0.00 | 60 | 1025.9 |
| 20260504185241 | 27 | 236 | 0.0 | 1.6 | 0.00 | 0.00 | 0.00 | 60 | 1025.8 |
| 20260504184737 | 27 | 235 | 0.0 | 0.0 | 0.00 | 0.00 | 0.00 | 61 | 1025.8 |
| 20260504184233 | 27 | 235 | 0.0 | 1.6 | 0.00 | 0.00 | 0.00 | 62 | 1025.7 |
| 20260504183729 | 27 | 237 | 1.6 | 1.6 | 0.00 | 0.00 | 0.00 | 61 | 1025.7 |
| 20260504183226 | 26 | 236 | 0.0 | 1.6 | 0.00 | 0.00 | 0.00 | 62 | 1025.7 |
| 20260504182724 | 26 | 237 | 0.0 | 1.6 | 0.00 | 0.00 | 0.00 | 61 | 1025.6 |
| 20260504182221 | 27 | 240 | 0.0 | 1.6 | 0.00 | 0.00 | 0.00 | 60 | 1025.9 |
| 20260504181719 | 27 | 236 | 0.0 | 3.2 | 0.00 | 0.00 | 0.00 | 59 | 1025.7 |
| 20260504181216 | 27 | 231 | 1.6 | 1.6 | 0.00 | 0.00 | 0.00 | 58 | 1025.8 |
| 20260504180715 | 27 | 234 | 1.6 | 1.6 | 0.00 | 0.00 | 0.00 | 58 | 1025.8 |
| 20260504180213 | 27 | 244 | 1.6 | 1.6 | 0.00 | 0.00 | 0.00 | 58 | 1025.9 |
| 20260504175710 | 28 | 241 | 0.0 | 1.6 | 0.00 | 0.00 | 0.00 | 57 | 1026.0 |
| 20260504175207 | 29 | 241 | 0.0 | 1.6 | 0.00 | 0.00 | 0.00 | 56 | 1025.8 |
| 20260504174705 | 29 | 241 | 0.0 | 0.0 | 0.00 | 0.00 | 0.00 | 55 | 1025.8 |
| 20260504174203 | 28 | 242 | 0.0 | 1.6 | 0.00 | 0.00 | 0.00 | 57 | 1026.0 |
| 20260504173659 | 28 | 236 | 1.6 | 1.6 | 0.00 | 0.00 | 0.00 | 57 | 1025.9 |
| 20260504173156 | 27 | 241 | 0.0 | 1.6 | 0.00 | 0.00 | 0.00 | 59 | 1026.0 |
| 20260504172652 | 27 | 244 | 0.0 | 3.2 | 0.00 | 0.00 | 0.00 | 60 | 1026.1 |
| 20260504172149 | 26 | 239 | 0.0 | 0.0 | 0.00 | 0.00 | 0.00 | 62 | 1026.0 |
| 20260504171645 | 26 | 238 | 0.0 | 0.0 | 0.00 | 0.00 | 0.00 | 62 | 1026.3 |
| 20260504171143 | 26 | 237 | 1.6 | 1.6 | 0.00 | 0.00 | 0.00 | 61 | 1026.3 |
| 20260504170639 | 26 | 236 | 0.0 | 0.0 | 0.00 | 0.00 | 0.00 | 62 | 1026.3 |
| 20260504170137 | 27 | 236 | 0.0 | 0.0 | 0.00 | 0.00 | 0.00 | 60 | 1026.4 |